Weather History for K1M4 - April, 2013

Change the Weather History Date:

Monday, April 1, 2013

  Actual Average (KJFX) Record (KJFX)
Temperature  
Mean Temperature 56 °F -  
Max Temperature 70 °F 73 °F 87 °F (1963)
Min Temperature 43 °F 40 °F 29 °F (1971)
Degree Days  
Heating Degree Days 8    
Growing Degree Days 6 (Base 50)    
Moisture  
Dew Point 47 °F    
Average Humidity 83    
Maximum Humidity 100    
Minimum Humidity 39    
Precipitation  
Precipitation 0.00 in - - ()
Sea Level Pressure  
Sea Level Pressure 30.04 in    
Wind  
Wind Speed 4 mph (North)    
Max Wind Speed 10 mph    
Max Gust Speed -    
Visibility 5 miles    
Events Fog    
Averages and records for this station are not official NWS values.
T = Trace of Precipitation, MM = Missing Value Source: NWS Daily Summary

Daily Weather History Graph

Daily Weather History Graph

Search for Another Location

Airport or City:

Trip Planner

Search our weather history database for the weather conditions in past years. The results will help you decide how hot, cold, wet, or windy it might be!

Date:

Astronomy

Apr. 01, 2013 Rise Set
Actual Time 6:37 AM CDT 7:11 PM CDT
Civil Twilight 6:12 AM CDT 7:36 PM CDT
Nautical Twilight 5:42 AM CDT 8:06 PM CDT
Astronomical Twilight 5:12 AM CDT 8:36 PM CDT
Moon 12:08 AM CDT (4/1) 10:35 AM CDT (4/1)
Length of Visible Light 13h 24m
Length of Day
12h 34m
Waning Gibbous, 67% of the Moon is Illuminated
Apr 1
Waning Gibbous
Apr 2
Last Quarter
Apr 10
New
Apr 18
First Quarter
Apr 25
Full

Hourly Weather History & Observations

Time (CDT) Temp. Windchill Dew Point Humidity Pressure Visibility Wind Dir Wind Speed Gust Speed Precip Events Conditions
12:06 AM 53.6 °F - 53.6 °F 100% 29.94 in 4.0 mi North 3.5 mph - N/A   Overcast
1:15 AM 51.8 °F - 51.8 °F 100% 29.95 in 8.0 mi North 3.5 mph - N/A   Scattered Clouds
1:36 AM 51.8 °F - 51.8 °F 100% 29.95 in 2.0 mi NNE 6.9 mph - N/A   Scattered Clouds
1:44 AM 51.8 °F - 51.8 °F 100% 29.95 in 8.0 mi NNE 3.5 mph - N/A   Mostly Cloudy
1:56 AM 50.9 °F - 50.9 °F 100% 29.99 in 6.0 mi Calm Calm - N/A   Mostly Cloudy
2:16 AM 51.8 °F - 51.8 °F 100% 29.95 in 4.0 mi North 4.6 mph - N/A   Overcast
2:26 AM 50.0 °F - 50.0 °F 100% 29.95 in 1.5 mi North 4.6 mph - N/A   Overcast
2:28 AM 50.0 °F - 50.0 °F 100% 29.95 in 1.0 mi North 4.6 mph - N/A   Overcast
2:30 AM 50.0 °F - 50.0 °F 100% 29.95 in 0.5 mi North 4.6 mph - N/A Fog Fog
2:38 AM 50.0 °F - 50.0 °F 100% 29.95 in 0.2 mi North 4.6 mph - N/A Fog Fog
2:56 AM 50.0 °F - 50.0 °F 100% 29.99 in 0.2 mi NNE 3.5 mph - N/A Fog Fog
3:24 AM 50.0 °F - 50.0 °F 100% 29.96 in 0.2 mi North 3.5 mph - N/A Fog Fog
3:32 AM 48.2 °F - 48.2 °F 100% 29.96 in 0.2 mi North 3.5 mph - N/A Fog Fog
4:56 AM 46.9 °F - 46.9 °F 100% 30.02 in 0.2 mi North 4.6 mph - N/A Fog Fog
5:56 AM 45.9 °F 44.6 °F 45.9 °F 100% 30.05 in 0.2 mi North 3.5 mph - N/A Fog Fog
6:56 AM 43.9 °F - 43.9 °F 100% 30.07 in 0.2 mi Calm Calm - N/A Fog Fog
7:56 AM 45.0 °F - 45.0 °F 100% 30.09 in 0.2 mi Calm Calm - N/A Fog Fog
8:08 AM 46.4 °F - 46.4 °F 100% 30.06 in 0.5 mi Calm Calm - N/A Fog Fog
8:12 AM 46.4 °F 45.2 °F 46.4 °F 100% 30.06 in 1.0 mi North 3.5 mph - N/A   Mostly Cloudy
8:14 AM 46.4 °F 45.2 °F 46.4 °F 100% 30.06 in 2.0 mi North 3.5 mph - N/A   Mostly Cloudy
8:21 AM 48.2 °F - 48.2 °F 100% 30.06 in 6.0 mi North 3.5 mph - N/A   Mostly Cloudy
8:31 AM 48.2 °F - 48.2 °F 100% 30.07 in 8.0 mi NNW 3.5 mph - N/A   Partly Cloudy
8:56 AM 50.9 °F - 50.9 °F 100% 30.10 in 10.0 mi Calm Calm - N/A   Clear
10:56 AM 63.0 °F - 47.8 °F 58% 30.12 in 10.0 mi WNW 8.1 mph - N/A   Clear
11:56 AM 64.9 °F - 46.9 °F 52% 30.12 in 10.0 mi Variable 5.8 mph - N/A   Partly Cloudy
1:56 PM 68.0 °F - 45.0 °F 43% 30.11 in 10.0 mi WNW 8.1 mph - N/A   Partly Cloudy
2:56 PM 68.9 °F - 43.9 °F 40% 30.09 in 10.0 mi North 6.9 mph - N/A   Scattered Clouds
3:56 PM 70.0 °F - 43.9 °F 39% 30.09 in 10.0 mi West 6.9 mph - N/A   Scattered Clouds
4:56 PM 68.9 °F - 43.9 °F 40% 30.07 in 10.0 mi NNW 10.4 mph - N/A   Partly Cloudy
6:56 PM 61.9 °F - 39.9 °F 44% 30.10 in 10.0 mi North 5.8 mph - N/A   Clear
7:56 PM 56.8 °F - 41.0 °F 55% 30.11 in 10.0 mi North 5.8 mph - N/A   Clear
8:56 PM 54.9 °F - 41.0 °F 60% 30.14 in 10.0 mi North 5.8 mph - N/A   Clear
9:56 PM 54.0 °F - 39.9 °F 59% 30.16 in 10.0 mi North 5.8 mph - N/A   Clear
10:56 PM 52.0 °F - 38.8 °F 61% 30.17 in 10.0 mi NNE 3.5 mph - N/A   Clear
11:56 PM 50.0 °F - 36.9 °F 61% 30.15 in 10.0 mi NNE 4.6 mph - N/A   Clear